This is the latest recevied weather packets stored in our database for station/object WB4ROX. If no packets are shown the sender has not sent any weather packets the latest 10 day(s).
| Time | Temp. | Humidity | Pressure | Rain* | Wind** | Luminosity | Snow |
|---|---|---|---|---|---|---|---|
| 1777944426 | 11.11° C | 53% | 1018.2 hPa | 0 mm | - | 0 W/m² | - |
| 1777944123 | 11.11° C | 52% | 1018.3 hPa | 0 mm | - | 0 W/m² | - |
| 1777943818 | 11.11° C | 52% | 1018.4 hPa | 0 mm | - | 0 W/m² | - |
| 1777943516 | 11.67° C | 51% | 1018.3 hPa | 0 mm | - | 0 W/m² | - |
| 1777943211 | 11.67° C | 51% | 1018.2 hPa | 0 mm | - | 0 W/m² | - |
| 1777942908 | 11.67° C | 51% | 1018.4 hPa | 0 mm | - | 0 W/m² | - |
| 1777942604 | 11.67° C | 50% | 1018.3 hPa | 0 mm | - | 0 W/m² | - |
| 1777942301 | 11.67° C | 51% | 1018.2 hPa | 0 mm | - | 0 W/m² | - |
| 1777941998 | 11.67° C | 51% | 1018.2 hPa | 0 mm | - | 0 W/m² | - |
| 1777941695 | 11.67° C | 50% | 1018.1 hPa | 0 mm | - | 0 W/m² | - |
| 1777941392 | 12.22° C | 50% | 1017.9 hPa | 0 mm | - | 0 W/m² | - |
| 1777941090 | 12.22° C | 50% | 1017.9 hPa | 0 mm | - | 0 W/m² | - |
| 1777940786 | 12.22° C | 50% | 1017.9 hPa | 0 mm | - | 1 W/m² | - |
| 1777940484 | 12.78° C | 50% | 1017.7 hPa | 0 mm | - | 2 W/m² | - |
| 1777940181 | 12.78° C | 49% | 1017.7 hPa | 0 mm | - | 3 W/m² | - |
| 1777939879 | 13.33° C | 48% | 1017.9 hPa | 0 mm | - | 5 W/m² | - |
| 1777939575 | 13.89° C | 47% | 1017.7 hPa | 0 mm | - | 7 W/m² | - |
| 1777939273 | 13.89° C | 46% | 1017.7 hPa | 0 mm | - | 12 W/m² | - |
| 1777938969 | 14.44° C | 45% | 1017.9 hPa | 0 mm | - | 16 W/m² | - |
| 1777938666 | 15° C | 44% | 1017.8 hPa | 0 mm | - | 20 W/m² | - |
| 1777938363 | 15° C | 44% | 1017.8 hPa | 0 mm | - | 26 W/m² | - |
| 1777938060 | 16.11° C | 42% | 1017.5 hPa | 0 mm | - | 34 W/m² | - |
| 1777937755 | 16.11° C | 41% | 1017.4 hPa | 0 mm | - | 44 W/m² | - |
| 1777937452 | 16.11° C | 41% | 1017.8 hPa | 0 mm | - | 52 W/m² | - |
| 1777937149 | 16.11° C | 42% | 1017.6 hPa | 0 mm | - | 62 W/m² | - |
* Rain latest hour (hover to see other rain measurements)
** Current wind speed in m/s (hover to see current wind gust speed)